TimeEST,TemperatureF,Dew PointF,Humidity,Sea Level PressureIn,VisibilityMPH,Wind Direction,Wind SpeedMPH,Gust SpeedMPH,PrecipitationIn,Events,Conditions,WindDirDegrees,DateUTC
12:16 AM,30.2,21.2,69,30.01,10.0,West,15.0,23.0,0.00,Snow,Light Snow,260,2012-12-22 05:16:00
12:51 AM,30.0,21.9,72,30.04,9.0,WSW,12.7,24.2,0.00,Snow,Light Snow,250,2012-12-22 05:51:00
1:05 AM,30.2,21.2,69,30.02,9.0,West,12.7,23.0,0.00,Snow,Light Snow,260,2012-12-22 06:05:00
1:51 AM,30.0,21.9,72,30.05,9.0,West,10.4,20.7,0.00,Snow,Light Snow,260,2012-12-22 06:51:00
2:51 AM,30.0,21.9,72,30.09,10.0,West,9.2,20.7,0.00,,Overcast,260,2012-12-22 07:51:00
3:51 AM,30.0,21.9,72,30.11,10.0,West,9.2,19.6,N/A,,Overcast,270,2012-12-22 08:51:00
4:30 AM,30.2,21.2,69,30.10,10.0,West,10.4,-,N/A,,Overcast,260,2012-12-22 09:30:00
4:51 AM,30.2,21.2,69,30.11,10.0,West,9.2,19.6,N/A,,Overcast,260,2012-12-22 09:51:00
5:51 AM,28.9,21.9,75,30.15,10.0,WSW,11.5,21.9,N/A,,Overcast,250,2012-12-22 10:51:00
6:51 AM,28.9,21.9,75,30.18,10.0,West,10.4,18.4,N/A,,Overcast,260,2012-12-22 11:51:00
7:09 AM,28.4,21.2,74,30.17,10.0,WSW,8.1,-,N/A,,Overcast,240,2012-12-22 12:09:00
7:51 AM,28.0,21.0,75,30.21,10.0,West,6.9,-,N/A,,Overcast,270,2012-12-22 12:51:00
8:51 AM,28.0,21.0,75,30.22,10.0,WSW,9.2,17.3,N/A,,Overcast,240,2012-12-22 13:51:00
9:51 AM,28.0,21.0,75,30.25,10.0,SW,9.2,-,N/A,,Overcast,230,2012-12-22 14:51:00
10:51 AM,28.9,21.0,72,30.27,10.0,West,6.9,-,N/A,,Overcast,260,2012-12-22 15:51:00
11:51 AM,30.0,19.9,66,30.24,10.0,West,6.9,-,N/A,,Overcast,270,2012-12-22 16:51:00
12:51 PM,30.9,21.0,67,30.22,10.0,WSW,8.1,-,N/A,,Mostly Cloudy,240,2012-12-22 17:51:00
1:51 PM,33.8,21.2,60,30.17,10.0,West,9.2,-,N/A,,Scattered Clouds,270,2012-12-22 18:51:00
2:51 PM,35.1,21.0,57,30.19,10.0,SW,8.1,-,N/A,,Scattered Clouds,220,2012-12-22 19:51:00
3:51 PM,35.1,21.0,57,30.20,10.0,West,8.1,-,N/A,,Clear,260,2012-12-22 20:51:00
4:51 PM,34.0,21.0,59,30.19,10.0,WSW,3.5,-,N/A,,Clear,250,2012-12-22 21:51:00
5:51 PM,32.0,19.9,61,30.19,10.0,Calm,Calm,-,N/A,,Clear,0,2012-12-22 22:51:00
6:51 PM,30.0,19.9,66,30.18,10.0,Calm,Calm,-,N/A,,Clear,0,2012-12-22 23:51:00
7:51 PM,28.9,21.0,72,30.19,10.0,Calm,Calm,-,N/A,,Clear,0,2012-12-23 00:51:00
8:51 PM,28.9,21.0,72,30.18,10.0,Calm,Calm,-,N/A,,Clear,0,2012-12-23 01:51:00
9:51 PM,28.0,19.9,72,30.17,10.0,Calm,Calm,-,N/A,,Clear,0,2012-12-23 02:51:00
10:51 PM,25.0,21.0,85,30.16,10.0,Calm,Calm,-,N/A,,Clear,0,2012-12-23 03:51:00
11:51 PM,26.1,21.0,81,30.15,10.0,Calm,Calm,-,N/A,,Clear,0,2012-12-23 04:51:00